Time,TemperatureF,DewpointF,PressureIn,WindDirection,WindDirectionDegrees,WindSpeedMPH,WindSpeedGustMPH,Humidity,HourlyPrecipIn,Conditions,Clouds,dailyrainin,SolarRadiationWatts/m^2,SoftwareType,DateUTC
2013-09-17 06:33:00,48.1,46.2,29.54,SSW,199,3.5,3.5,93,0.00,BKN,,0.00,0.0,WeatherDisplay:10.37,2013-09-17 05:33:00,
2013-09-17 06:38:00,48.1,46.2,29.56,WNW,287,4.6,4.6,93,0.00,BKN,,0.00,0.0,WeatherDisplay:10.37,2013-09-17 05:38:00,
2013-09-17 06:43:00,48.0,46.4,29.55,SW,221,3.5,3.5,94,0.00,BKN,,0.00,0.0,WeatherDisplay:10.37,2013-09-17 05:43:00,
2013-09-17 06:48:00,47.9,46.3,29.55,WSW,239,3.5,3.5,94,0.00,BKN,,0.01,0.0,WeatherDisplay:10.37,2013-09-17 05:48:00,
2013-09-17 06:53:00,47.9,46.3,29.54,SW,225,3.5,3.5,94,0.02,RA,,0.02,0.0,WeatherDisplay:10.37,2013-09-17 05:53:00,
2013-09-17 06:58:00,47.7,46.1,29.53,SW,218,2.3,2.3,94,0.02,RA,,0.02,0.0,WeatherDisplay:10.37,2013-09-17 05:58:00,
2013-09-17 07:03:00,47.7,46.1,29.52,SW,233,2.3,2.3,94,0.02,-DZ,,0.02,0.0,WeatherDisplay:10.37,2013-09-17 06:03:00,
2013-09-17 07:08:00,47.6,46.2,29.52,SSW,208,2.3,2.3,95,0.02,-DZ,,0.02,0.0,WeatherDisplay:10.37,2013-09-17 06:08:00,
2013-09-17 07:13:00,47.6,46.2,29.52,SW,215,2.3,2.3,95,0.02,-DZ,,0.02,0.0,WeatherDisplay:10.37,2013-09-17 06:13:00,
2013-09-17 07:18:00,47.5,46.1,29.51,SSE,155,3.5,3.5,95,0.02,-DZ,,0.02,0.0,WeatherDisplay:10.37,2013-09-17 06:18:00,
2013-09-17 07:23:00,47.5,46.1,29.51,SSE,163,1.2,0.0,95,0.03,-DZ,,0.03,0.0,WeatherDisplay:10.37,2013-09-17 06:23:00,
2013-09-17 07:28:00,47.5,46.1,29.53,SSW,202,0.0,0.0,95,0.03,-DZ,,0.03,0.0,WeatherDisplay:10.37,2013-09-17 06:28:00,
2013-09-17 07:33:00,47.5,46.1,29.52,SW,214,1.2,1.2,95,0.03,-DZ,,0.03,0.0,WeatherDisplay:10.37,2013-09-17 06:33:00,
2013-09-17 07:38:00,47.5,46.1,29.51,SE,142,3.5,3.5,95,0.05,-DZ,,0.05,0.0,WeatherDisplay:10.37,2013-09-17 06:38:00,
2013-09-17 07:43:00,47.5,46.1,29.51,SSW,197,2.3,2.3,95,0.06,-DZ,,0.06,0.0,WeatherDisplay:10.37,2013-09-17 06:43:00,
2013-09-17 07:48:00,47.5,46.1,29.50,SSE,152,3.5,3.5,95,0.06,-DZ,,0.06,0.0,WeatherDisplay:10.37,2013-09-17 06:48:00,
2013-09-17 07:53:00,47.5,46.1,29.50,SSE,159,3.0,3.0,95,0.04,-DZ,,0.06,0.0,WeatherDisplay:10.37,2013-09-17 06:53:00,
2013-09-17 07:58:00,47.6,46.2,29.50,SSE,161,3.5,3.5,95,0.05,-DZ,,0.06,0.0,WeatherDisplay:10.37,2013-09-17 06:58:00,
2013-09-17 08:03:00,47.6,46.5,29.48,South,188,3.5,3.5,96,0.05,-DZ,,0.06,0.0,WeatherDisplay:10.37,2013-09-17 07:03:00,
2013-09-17 08:08:00,47.6,46.5,29.47,SE,142,3.5,3.5,96,0.05,-DZ,,0.07,0.0,WeatherDisplay:10.37,2013-09-17 07:08:00,
2013-09-17 08:13:00,47.7,46.6,29.48,South,179,4.6,4.6,96,0.05,-DZ,,0.07,0.0,WeatherDisplay:10.37,2013-09-17 07:13:00,
2013-09-17 08:18:00,47.6,46.5,29.49,SSW,197,1.2,0.0,96,0.05,-DZ,,0.08,0.0,WeatherDisplay:10.37,2013-09-17 07:18:00,
2013-09-17 08:23:00,47.7,46.6,29.49,East,91,1.2,1.2,96,0.06,-DZ,,0.10,0.0,WeatherDisplay:10.37,2013-09-17 07:23:00,
2013-09-17 08:28:00,47.8,46.7,29.49,SSW,205,0.0,0.0,96,0.09,-DZ,,0.12,0.0,WeatherDisplay:10.37,2013-09-17 07:28:00,
2013-09-17 08:33:00,47.9,46.8,29.50,SSW,205,0.0,0.0,96,0.09,-DZ,,0.13,0.0,WeatherDisplay:10.37,2013-09-17 07:33:00,
2013-09-17 08:38:00,47.9,46.8,29.49,SSW,205,0.0,0.0,96,0.09,-DZ,,0.13,0.0,WeatherDisplay:10.37,2013-09-17 07:38:00,
2013-09-17 08:43:00,47.9,46.8,29.49,South,186,0.0,0.2,96,0.09,-DZ,,0.14,0.0,WeatherDisplay:10.37,2013-09-17 07:43:00,
2013-09-17 08:48:00,47.9,46.8,29.50,SSE,152,0.0,0.0,96,0.09,-DZ,,0.15,0.0,WeatherDisplay:10.37,2013-09-17 07:48:00,
2013-09-17 08:53:00,47.9,46.8,29.49,ESE,122,2.3,2.3,96,0.10,-DZ,,0.16,0.0,WeatherDisplay:10.37,2013-09-17 07:53:00,
2013-09-17 08:58:00,48.0,46.9,29.48,SE,141,2.3,2.3,96,0.10,-DZ,,0.17,0.0,WeatherDisplay:10.37,2013-09-17 07:58:00,
2013-09-17 09:03:00,47.9,46.8,29.48,SE,135,3.5,3.5,96,0.12,-RA,,0.18,0.0,WeatherDisplay:10.37,2013-09-17 08:03:00,
2013-09-17 09:08:00,47.9,46.8,29.46,SE,132,3.5,3.5,96,0.11,-RA,,0.18,0.0,WeatherDisplay:10.37,2013-09-17 08:08:00,
2013-09-17 09:13:00,48.0,46.9,29.45,SE,142,3.5,3.5,96,0.12,-RA,,0.19,0.0,WeatherDisplay:10.37,2013-09-17 08:13:00,
2013-09-17 09:18:00,47.9,46.8,29.46,ESE,118,3.5,3.5,96,0.12,-RA,,0.19,0.0,WeatherDisplay:10.37,2013-09-17 08:18:00,
2013-09-17 09:23:00,48.0,46.9,29.46,ESE,108,3.5,3.5,96,0.09,-RA,,0.19,0.0,WeatherDisplay:10.37,2013-09-17 08:23:00,
2013-09-17 09:28:00,48.0,46.9,29.45,ESE,115,3.5,3.5,96,0.08,-RA,,0.20,0.0,WeatherDisplay:10.37,2013-09-17 08:28:00,
2013-09-17 09:33:00,48.0,46.9,29.43,ESE,115,6.9,6.9,96,0.08,-RA,,0.20,0.0,WeatherDisplay:10.37,2013-09-17 08:33:00,
2013-09-17 09:38:00,48.1,47.0,29.43,ESE,110,5.8,5.8,96,0.08,-RA,,0.21,0.0,WeatherDisplay:10.37,2013-09-17 08:38:00,
2013-09-17 09:43:00,48.1,47.0,29.43,ESE,116,5.0,5.0,96,0.07,-RA,,0.21,0.0,WeatherDisplay:10.37,2013-09-17 08:43:00,
2013-09-17 09:48:00,48.1,47.0,29.42,ESE,104,3.5,3.5,96,0.06,-RA,,0.22,0.0,WeatherDisplay:10.37,2013-09-17 08:48:00,
2013-09-17 09:53:00,48.1,47.0,29.43,ESE,118,4.0,4.0,96,0.06,-RA,,0.22,0.0,WeatherDisplay:10.37,2013-09-17 08:53:00,
2013-09-17 09:58:00,48.1,47.0,29.41,SE,131,5.8,5.8,96,0.06,-RA,,0.23,0.0,WeatherDisplay:10.37,2013-09-17 08:58:00,
2013-09-17 10:03:00,48.2,47.1,29.41,ESE,108,6.9,6.9,96,0.06,-RA,,0.24,0.0,WeatherDisplay:10.37,2013-09-17 09:03:00,
2013-09-17 10:08:00,48.5,47.4,29.40,East,91,8.1,8.1,96,0.06,-RA,,0.24,0.0,WeatherDisplay:10.37,2013-09-17 09:08:00,
2013-09-17 10:13:00,48.7,47.6,29.40,East,98,9.2,9.2,96,0.06,-RA,,0.24,0.0,WeatherDisplay:10.37,2013-09-17 09:13:00,
2013-09-17 10:18:00,48.7,47.6,29.40,ESE,108,9.2,9.2,96,0.06,-RA,,0.24,0.0,WeatherDisplay:10.37,2013-09-17 09:18:00,
2013-09-17 10:23:00,48.9,47.8,29.40,ESE,108,8.0,8.0,96,0.06,-RA,,0.24,0.0,WeatherDisplay:10.37,2013-09-17 09:23:00,
2013-09-17 10:28:00,48.8,47.7,29.40,SE,130,8.1,8.1,96,0.05,-RA,,0.24,0.0,WeatherDisplay:10.37,2013-09-17 09:28:00,
2013-09-17 10:33:00,48.9,47.8,29.40,SE,140,8.1,8.1,96,0.04,-RA,,0.25,0.0,WeatherDisplay:10.37,2013-09-17 09:33:00,
2013-09-17 10:38:00,48.8,47.7,29.39,ESE,115,8.1,8.1,96,0.04,-RA,,0.25,0.0,WeatherDisplay:10.37,2013-09-17 09:38:00,
2013-09-17 10:43:00,48.9,47.8,29.40,SSE,148,4.6,4.6,96,0.04,-RA,,0.25,0.0,WeatherDisplay:10.37,2013-09-17 09:43:00,
2013-09-17 10:48:00,49.0,47.9,29.40,ESE,114,3.5,3.5,96,0.05,-RA,,0.26,0.0,WeatherDisplay:10.37,2013-09-17 09:48:00,
2013-09-17 10:53:00,49.0,47.9,29.40,ESE,111,5.0,5.0,96,0.05,-RA,,0.27,0.0,WeatherDisplay:10.37,2013-09-17 09:53:00,
2013-09-17 10:58:00,49.1,48.0,29.40,SE,124,5.0,5.0,96,0.06,-RA,,0.28,0.0,WeatherDisplay:10.37,2013-09-17 09:58:00,
2013-09-17 11:03:00,49.2,48.1,29.40,SE,129,3.5,3.5,96,0.05,-DZ,,0.28,0.0,WeatherDisplay:10.37,2013-09-17 10:03:00,
2013-09-17 11:08:00,49.5,48.7,29.40,ESE,115,5.0,5.0,97,0.04,-DZ,,0.28,0.0,WeatherDisplay:10.37,2013-09-17 10:08:00,
2013-09-17 11:13:00,49.5,48.4,29.40,East,97,5.0,5.0,96,0.04,-DZ,,0.28,0.0,WeatherDisplay:10.37,2013-09-17 10:13:00,
2013-09-17 11:18:00,49.7,48.9,29.39,East,86,6.0,6.0,97,0.04,-DZ,,0.28,0.0,WeatherDisplay:10.37,2013-09-17 10:18:00,
2013-09-17 11:23:00,49.9,49.1,29.40,SE,124,4.0,4.0,97,0.04,-DZ,,0.28,0.0,WeatherDisplay:10.37,2013-09-17 10:23:00,
2013-09-17 11:28:00,49.9,48.8,29.40,ENE,67,5.8,5.8,96,0.04,-DZ,,0.28,0.0,WeatherDisplay:10.37,2013-09-17 10:28:00,
2013-09-17 11:33:00,50.1,49.3,29.40,East,97,3.5,3.5,97,0.04,-DZ,,0.28,0.0,WeatherDisplay:10.37,2013-09-17 10:33:00,
2013-09-17 11:38:00,50.0,48.9,29.39,East,82,5.0,5.0,96,0.03,-DZ,,0.28,0.0,WeatherDisplay:10.37,2013-09-17 10:38:00,
2013-09-17 11:43:00,50.1,49.3,29.40,East,96,3.5,3.7,97,0.04,-DZ,,0.29,0.0,WeatherDisplay:10.37,2013-09-17 10:43:00,
2013-09-17 11:48:00,50.2,49.1,29.39,ESE,110,3.5,3.5,96,0.03,-DZ,,0.29,0.0,WeatherDisplay:10.37,2013-09-17 10:48:00,
2013-09-17 11:53:00,50.3,49.2,29.39,ESE,107,1.2,1.2,96,0.02,-DZ,,0.29,0.0,WeatherDisplay:10.37,2013-09-17 10:53:00,
2013-09-17 11:58:00,50.4,49.3,29.39,East,89,1.2,1.2,96,0.02,-DZ,,0.29,0.0,WeatherDisplay:10.37,2013-09-17 10:58:00,
2013-09-17 12:03:00,50.5,49.4,29.39,East,101,2.3,2.3,96,0.01,-DZ,,0.29,0.0,WeatherDisplay:10.37,2013-09-17 11:03:00,
2013-09-17 12:08:00,50.6,49.5,29.39,SE,127,2.3,2.3,96,0.02,-DZ,,0.30,0.0,WeatherDisplay:10.37,2013-09-17 11:08:00,
2013-09-17 12:13:00,50.9,50.1,29.39,East,89,2.3,2.3,97,0.02,-DZ,,0.30,0.0,WeatherDisplay:10.37,2013-09-17 11:13:00,
2013-09-17 12:18:00,51.2,50.4,29.39,ESE,108,2.3,2.3,97,0.02,-DZ,,0.30,0.0,WeatherDisplay:10.37,2013-09-17 11:18:00,
2013-09-17 12:23:00,51.6,50.8,29.39,East,94,2.3,2.3,97,0.02,-DZ,,0.30,0.0,WeatherDisplay:10.37,2013-09-17 11:23:00,
2013-09-17 12:28:00,52.2,51.4,29.38,SSE,154,0.0,0.0,97,0.02,-DZ,,0.30,0.0,WeatherDisplay:10.37,2013-09-17 11:28:00,
2013-09-17 12:33:00,52.3,51.2,29.38,SE,124,3.5,3.5,96,0.02,-DZ,,0.30,0.0,WeatherDisplay:10.37,2013-09-17 11:33:00,
2013-09-17 12:38:00,52.6,51.8,29.38,SE,124,0.0,0.0,97,0.02,-DZ,,0.30,0.0,WeatherDisplay:10.37,2013-09-17 11:38:00,
2013-09-17 12:43:00,53.2,52.4,29.38,WSW,243,0.0,0.0,97,0.01,-DZ,,0.30,0.0,WeatherDisplay:10.37,2013-09-17 11:43:00,
2013-09-17 12:48:00,53.5,52.4,29.38,SW,219,3.5,3.5,96,0.01,-DZ,,0.30,0.0,WeatherDisplay:10.37,2013-09-17 11:48:00,
2013-09-17 12:53:00,54.2,53.4,29.38,WSW,254,5.8,5.8,97,0.01,-DZ,,0.30,0.0,WeatherDisplay:10.37,2013-09-17 11:53:00,
2013-09-17 12:58:00,54.9,54.1,29.37,WNW,283,6.9,6.9,97,0.01,-DZ,,0.30,0.0,WeatherDisplay:10.37,2013-09-17 11:58:00,
2013-09-17 13:03:00,55.4,54.6,29.37,West,259,6.0,6.0,97,0.01,-DZ,,0.30,0.0,WeatherDisplay:10.37,2013-09-17 12:03:00,
2013-09-17 13:08:00,55.5,54.4,29.38,SW,235,6.9,6.9,96,0.00,-DZ,,0.30,0.0,WeatherDisplay:10.37,2013-09-17 12:08:00,
2013-09-17 13:13:00,55.5,54.4,29.37,West,270,5.0,5.0,96,0.01,-DZ,,0.31,0.0,WeatherDisplay:10.37,2013-09-17 12:13:00,
2013-09-17 13:18:00,55.9,55.1,29.37,WNW,303,6.9,6.9,97,0.02,-DZ,,0.31,0.0,WeatherDisplay:10.37,2013-09-17 12:18:00,
2013-09-17 13:23:00,56.4,55.6,29.38,West,274,11.0,11.0,97,0.02,-DZ,,0.31,0.0,WeatherDisplay:10.37,2013-09-17 12:23:00,
2013-09-17 13:28:00,56.9,56.1,29.37,NW,306,11.5,11.5,97,0.02,-DZ,,0.32,0.0,WeatherDisplay:10.37,2013-09-17 12:28:00,
2013-09-17 13:33:00,57.3,56.5,29.37,West,279,18.0,18.0,97,0.02,-DZ,,0.32,0.0,WeatherDisplay:10.37,2013-09-17 12:33:00,
2013-09-17 13:38:00,57.4,56.3,29.37,NW,304,21.9,21.9,96,0.02,-DZ,,0.32,0.0,WeatherDisplay:10.37,2013-09-17 12:38:00,
2013-09-17 13:43:00,57.5,56.4,29.38,West,278,17.3,17.3,96,0.02,-DZ,,0.32,0.0,WeatherDisplay:10.37,2013-09-17 12:43:00,
2013-09-17 13:48:00,57.5,56.4,29.38,WSW,258,20.7,20.7,96,0.02,-DZ,,0.32,0.0,WeatherDisplay:10.37,2013-09-17 12:48:00,
2013-09-17 13:53:00,57.5,56.4,29.37,NW,305,19.6,19.6,96,0.02,-DZ,,0.32,0.0,WeatherDisplay:10.37,2013-09-17 12:53:00,
2013-09-17 13:58:00,57.6,56.2,29.37,WNW,291,20.0,20.0,95,0.02,-DZ,,0.32,0.0,WeatherDisplay:10.37,2013-09-17 12:58:00,
2013-09-17 14:03:00,57.6,56.2,29.37,West,272,19.0,19.0,95,0.02,-DZ,,0.32,0.0,WeatherDisplay:10.37,2013-09-17 13:03:00,
2013-09-17 14:08:00,57.6,56.2,29.37,West,259,17.3,17.3,95,0.02,-DZ,,0.32,0.0,WeatherDisplay:10.37,2013-09-17 13:08:00,
2013-09-17 14:13:00,57.7,56.0,29.38,WSW,240,19.6,19.6,94,0.02,-DZ,,0.32,0.0,WeatherDisplay:10.37,2013-09-17 13:13:00,
2013-09-17 14:18:00,57.7,56.0,29.38,West,274,14.0,14.0,94,0.01,-DZ,,0.32,0.0,WeatherDisplay:10.37,2013-09-17 13:18:00,
2013-09-17 14:23:00,57.5,55.8,29.38,West,260,14.0,14.0,94,0.01,-DZ,,0.32,0.0,WeatherDisplay:10.37,2013-09-17 13:23:00,
2013-09-17 14:28:00,57.4,55.7,29.37,WNW,295,19.0,19.0,94,0.01,-DZ,,0.32,0.0,WeatherDisplay:10.37,2013-09-17 13:28:00,
2013-09-17 14:33:00,57.4,56.0,29.38,West,277,17.0,17.0,95,0.00,-DZ,,0.32,0.0,WeatherDisplay:10.37,2013-09-17 13:33:00,
2013-09-17 14:38:00,57.1,55.4,29.38,WSW,257,19.6,19.6,94,0.00,-DZ,,0.32,0.0,WeatherDisplay:10.37,2013-09-17 13:38:00,
2013-09-17 14:43:00,57.0,55.3,29.38,WNW,283,12.0,12.1,94,0.00,-DZ,,0.32,0.0,WeatherDisplay:10.37,2013-09-17 13:43:00,
2013-09-17 14:48:00,56.9,55.5,29.38,West,269,15.0,15.0,95,0.00,-DZ,,0.33,0.0,WeatherDisplay:10.37,2013-09-17 13:48:00,
2013-09-17 14:53:00,56.7,55.3,29.38,WSW,250,11.5,11.5,95,0.01,-DZ,,0.33,0.0,WeatherDisplay:10.37,2013-09-17 13:53:00,
2013-09-17 14:58:00,56.5,55.1,29.38,WNW,283,12.7,12.7,95,0.01,-DZ,,0.33,0.0,WeatherDisplay:10.37,2013-09-17 13:58:00,
2013-09-17 15:03:00,56.2,54.8,29.38,WNW,294,15.0,15.0,95,0.01,-DZ,,0.33,0.0,WeatherDisplay:10.37,2013-09-17 14:03:00,
2013-09-17 15:08:00,56.0,54.3,29.38,West,263,18.4,18.4,94,0.01,-DZ,,0.33,0.0,WeatherDisplay:10.37,2013-09-17 14:08:00,
2013-09-17 15:13:00,56.1,54.4,29.39,West,280,13.8,13.8,94,0.01,-DZ,,0.33,0.0,WeatherDisplay:10.37,2013-09-17 14:13:00,
2013-09-17 15:18:00,56.1,54.4,29.39,West,273,16.1,16.1,94,0.01,-DZ,,0.33,0.0,WeatherDisplay:10.37,2013-09-17 14:18:00,
2013-09-17 15:23:00,56.1,54.1,29.39,West,276,16.1,16.1,93,0.01,-DZ,,0.33,0.0,WeatherDisplay:10.37,2013-09-17 14:23:00,
2013-09-17 15:28:00,56.3,54.3,29.39,WSW,252,10.4,10.4,93,0.01,-DZ,,0.33,0.0,WeatherDisplay:10.37,2013-09-17 14:28:00,
2013-09-17 15:33:00,56.3,54.3,29.39,WSW,254,13.0,13.0,93,0.01,-DZ,,0.33,0.0,WeatherDisplay:10.37,2013-09-17 14:33:00,
2013-09-17 15:38:00,56.2,54.2,29.38,WNW,293,15.0,15.0,93,0.01,-DZ,,0.33,0.0,WeatherDisplay:10.37,2013-09-17 14:38:00,
2013-09-17 15:43:00,56.2,53.9,29.39,WNW,283,16.1,16.1,92,0.01,-DZ,,0.33,0.0,WeatherDisplay:10.37,2013-09-17 14:43:00,
2013-09-17 15:48:00,56.1,53.8,29.39,WNW,286,13.8,13.8,92,0.01,-DZ,,0.33,0.0,WeatherDisplay:10.37,2013-09-17 14:48:00,
2013-09-17 15:53:00,56.1,53.8,29.39,West,267,15.0,15.0,92,0.00,-DZ,,0.33,0.0,WeatherDisplay:10.37,2013-09-17 14:53:00,
2013-09-17 15:58:00,56.1,53.8,29.39,WNW,285,18.4,18.4,92,0.00,-DZ,,0.33,0.0,WeatherDisplay:10.37,2013-09-17 14:58:00,
2013-09-17 16:03:00,56.1,53.8,29.39,WNW,301,13.8,13.8,92,0.00,-DZ,,0.33,0.0,WeatherDisplay:10.37,2013-09-17 15:03:00,
2013-09-17 16:08:00,56.0,54.0,29.39,WNW,302,18.4,18.4,93,0.00,-DZ,,0.33,0.0,WeatherDisplay:10.37,2013-09-17 15:08:00,
2013-09-17 16:13:00,56.0,54.0,29.39,West,280,16.1,16.1,93,0.00,-DZ,,0.33,0.0,WeatherDisplay:10.37,2013-09-17 15:13:00,
2013-09-17 16:18:00,56.0,54.0,29.39,West,281,13.0,13.0,93,0.00,-DZ,,0.33,0.0,WeatherDisplay:10.37,2013-09-17 15:18:00,
2013-09-17 16:23:00,55.9,53.9,29.39,WSW,248,11.5,11.5,93,0.00,-DZ,,0.33,0.0,WeatherDisplay:10.37,2013-09-17 15:23:00,
2013-09-17 16:28:00,55.9,53.9,29.39,WNW,285,15.0,15.0,93,0.00,-DZ,,0.33,0.0,WeatherDisplay:10.37,2013-09-17 15:28:00,
2013-09-17 16:33:00,55.9,53.9,29.39,WSW,257,11.5,11.5,93,0.00,-DZ,,0.33,0.0,WeatherDisplay:10.37,2013-09-17 15:33:00,
2013-09-17 16:38:00,55.9,53.9,29.39,West,262,11.5,11.5,93,0.00,-DZ,,0.33,0.0,WeatherDisplay:10.37,2013-09-17 15:38:00,
2013-09-17 16:43:00,55.7,53.7,29.39,WNW,286,19.6,19.6,93,0.00,-DZ,,0.33,0.0,WeatherDisplay:10.37,2013-09-17 15:43:00,
2013-09-17 16:48:00,55.5,53.8,29.39,West,259,10.4,10.4,94,0.00,-DZ,,0.33,0.0,WeatherDisplay:10.37,2013-09-17 15:48:00,
2013-09-17 16:53:00,55.4,53.7,29.39,West,271,11.5,11.5,94,0.00,-DZ,,0.33,0.0,WeatherDisplay:10.37,2013-09-17 15:53:00,
2013-09-17 16:58:00,55.4,53.7,29.39,West,275,11.5,11.5,94,0.00,-DZ,,0.33,0.0,WeatherDisplay:10.37,2013-09-17 15:58:00,
2013-09-17 17:03:00,55.5,53.8,29.39,West,267,12.7,12.7,94,0.00,-RA,,0.33,0.0,WeatherDisplay:10.37,2013-09-17 16:03:00,
2013-09-17 17:08:00,55.5,53.8,29.39,West,276,11.5,11.5,94,0.00,-RA,,0.33,0.0,WeatherDisplay:10.37,2013-09-17 16:08:00,
2013-09-17 17:13:00,55.6,53.9,29.39,WNW,297,12.7,12.7,94,0.00,-RA,,0.33,0.0,WeatherDisplay:10.37,2013-09-17 16:13:00,
2013-09-17 17:18:00,55.6,53.9,29.39,WSW,242,10.4,10.4,94,0.00,-RA,,0.33,0.0,WeatherDisplay:10.37,2013-09-17 16:18:00,
2013-09-17 17:23:00,55.6,53.6,29.39,West,275,15.0,15.0,93,0.00,-RA,,0.33,0.0,WeatherDisplay:10.37,2013-09-17 16:23:00,
2013-09-17 17:28:00,55.6,53.6,29.39,WNW,294,14.0,14.0,93,0.00,-RA,,0.33,0.0,WeatherDisplay:10.37,2013-09-17 16:28:00,
2013-09-17 17:33:00,55.7,53.7,29.40,West,266,10.4,10.4,93,0.00,-RA,,0.33,0.0,WeatherDisplay:10.37,2013-09-17 16:33:00,
2013-09-17 17:38:00,55.5,53.5,29.40,West,280,17.3,17.3,93,0.00,-RA,,0.33,0.0,WeatherDisplay:10.37,2013-09-17 16:38:00,
2013-09-17 17:43:00,55.3,53.6,29.40,WNW,293,10.4,10.4,94,0.00,-RA,,0.33,0.0,WeatherDisplay:10.37,2013-09-17 16:43:00,
2013-09-17 17:48:00,55.1,53.4,29.40,WNW,283,16.1,16.1,94,0.00,-RA,,0.33,0.0,WeatherDisplay:10.37,2013-09-17 16:48:00,
2013-09-17 17:53:00,54.9,53.2,29.40,WNW,288,11.5,11.5,94,0.00,-RA,,0.33,0.0,WeatherDisplay:10.37,2013-09-17 16:53:00,
2013-09-17 17:58:00,54.9,53.2,29.40,WNW,283,8.1,8.1,94,0.00,-RA,,0.33,0.0,WeatherDisplay:10.37,2013-09-17 16:58:00,
2013-09-17 18:03:00,54.7,53.0,29.40,WNW,293,11.5,11.5,94,0.00,-RA,,0.33,0.0,WeatherDisplay:10.37,2013-09-17 17:03:00,
2013-09-17 18:08:00,54.7,53.0,29.40,WNW,293,9.2,9.2,94,0.00,-RA,,0.33,0.0,WeatherDisplay:10.37,2013-09-17 17:08:00,
2013-09-17 18:13:00,54.7,53.0,29.40,WNW,285,11.5,11.5,94,0.00,-RA,,0.33,0.0,WeatherDisplay:10.37,2013-09-17 17:13:00,
2013-09-17 18:18:00,54.8,53.1,29.41,West,273,11.5,11.5,94,0.00,-RA,,0.33,0.0,WeatherDisplay:10.37,2013-09-17 17:18:00,
2013-09-17 18:23:00,54.8,53.1,29.41,WNW,290,9.2,9.2,94,0.00,-RA,,0.33,0.0,WeatherDisplay:10.37,2013-09-17 17:23:00,
2013-09-17 18:28:00,54.8,53.1,29.41,West,259,11.5,11.5,94,0.00,-RA,,0.33,0.0,WeatherDisplay:10.37,2013-09-17 17:28:00,
2013-09-17 18:33:00,54.9,53.2,29.41,WNW,290,5.8,5.8,94,0.00,-RA,,0.33,0.0,WeatherDisplay:10.37,2013-09-17 17:33:00,
2013-09-17 18:38:00,54.8,53.1,29.41,West,276,10.4,10.4,94,0.00,-RA,,0.33,0.0,WeatherDisplay:10.37,2013-09-17 17:38:00,
2013-09-17 18:43:00,54.8,53.1,29.41,West,270,6.9,6.9,94,0.00,-RA,,0.33,0.0,WeatherDisplay:10.37,2013-09-17 17:43:00,
2013-09-17 18:48:00,54.8,53.1,29.41,West,262,9.2,9.2,94,0.00,-RA,,0.33,0.0,WeatherDisplay:10.37,2013-09-17 17:48:00,
2013-09-17 18:53:00,54.7,53.0,29.41,WNW,288,8.1,8.1,94,0.00,-RA,,0.33,0.0,WeatherDisplay:10.37,2013-09-17 17:53:00,
2013-09-17 18:58:00,54.7,53.0,29.42,WNW,302,9.0,9.0,94,0.00,-RA,,0.33,0.0,WeatherDisplay:10.37,2013-09-17 17:58:00,
2013-09-17 19:03:00,54.1,52.4,29.42,NW,326,6.9,6.9,94,0.01,-RA,,0.35,0.0,WeatherDisplay:10.37,2013-09-17 18:03:00,
2013-09-17 19:08:00,53.7,52.0,29.43,NW,323,8.1,8.1,94,0.02,-RA,,0.35,0.0,WeatherDisplay:10.37,2013-09-17 18:08:00,
2013-09-17 19:13:00,53.4,52.0,29.43,NNW,334,6.9,6.9,95,0.02,-RA,,0.35,0.0,WeatherDisplay:10.37,2013-09-17 18:13:00,
2013-09-17 19:18:00,53.2,51.8,29.43,NW,324,6.9,6.9,95,0.02,-RA,,0.35,0.0,WeatherDisplay:10.37,2013-09-17 18:18:00,
2013-09-17 19:23:00,53.0,51.3,29.43,NE,44,6.0,6.0,94,0.02,-RA,,0.35,0.0,WeatherDisplay:10.37,2013-09-17 18:23:00,
2013-09-17 19:28:00,52.6,51.2,29.43,NW,317,4.6,4.6,95,0.02,-RA,,0.35,0.0,WeatherDisplay:10.37,2013-09-17 18:28:00,
2013-09-17 19:33:00,52.2,50.5,29.43,NW,323,5.8,5.8,94,0.02,-RA,,0.35,0.0,WeatherDisplay:10.37,2013-09-17 18:33:00,
2013-09-17 19:38:00,51.8,50.1,29.44,North,355,4.0,4.0,94,0.02,-RA,,0.35,0.0,WeatherDisplay:10.37,2013-09-17 18:38:00,
2013-09-17 19:43:00,51.6,50.2,29.44,NNW,339,4.6,4.6,95,0.02,-RA,,0.35,0.0,WeatherDisplay:10.37,2013-09-17 18:43:00,
2013-09-17 19:48:00,51.5,50.1,29.44,NNW,339,6.9,6.9,95,0.02,-RA,,0.35,0.0,WeatherDisplay:10.37,2013-09-17 18:48:00,
2013-09-17 19:54:00,51.4,50.0,29.45,NNW,348,6.9,6.9,95,0.02,-RA,,0.35,0.0,WeatherDisplay:10.37,2013-09-17 18:54:00,
2013-09-17 19:59:00,51.4,50.0,29.45,NNW,338,4.6,4.6,95,0.02,-RA,,0.35,0.0,WeatherDisplay:10.37,2013-09-17 18:59:00,
2013-09-17 20:03:00,51.3,49.9,29.45,NW,320,3.5,3.5,95,0.01,-RA,,0.35,0.0,WeatherDisplay:10.37,2013-09-17 19:03:00,
2013-09-17 20:09:00,51.3,49.9,29.46,NW,315,4.0,4.0,95,0.00,-RA,,0.35,0.0,WeatherDisplay:10.37,2013-09-17 19:09:00,
2013-09-17 20:14:00,51.2,49.8,29.46,NNW,328,3.5,3.5,95,0.00,-RA,,0.35,0.0,WeatherDisplay:10.37,2013-09-17 19:14:00,
2013-09-17 20:18:00,51.2,49.8,29.46,NNW,331,3.5,3.5,95,0.00,-RA,,0.35,0.0,WeatherDisplay:10.37,2013-09-17 19:18:00,
2013-09-17 20:23:00,51.2,49.8,29.46,NW,313,3.5,3.5,95,0.00,-RA,,0.35,0.0,WeatherDisplay:10.37,2013-09-17 19:23:00,
2013-09-17 20:29:00,51.1,49.7,29.46,NW,319,3.5,3.5,95,0.01,-RA,,0.35,0.0,WeatherDisplay:10.37,2013-09-17 19:29:00,
2013-09-17 20:34:00,51.0,49.6,29.46,North,6,4.0,4.0,95,0.01,-RA,,0.35,0.0,WeatherDisplay:10.37,2013-09-17 19:34:00,
2013-09-17 20:39:00,50.8,49.4,29.47,NW,322,6.9,6.9,95,0.01,-RA,,0.35,0.0,WeatherDisplay:10.37,2013-09-17 19:39:00,
2013-09-17 20:43:00,50.8,49.7,29.47,NW,317,6.0,6.0,96,0.01,-RA,,0.35,0.0,WeatherDisplay:10.37,2013-09-17 19:43:00,
2013-09-17 20:48:00,50.6,49.5,29.47,NNW,335,9.2,9.2,96,0.01,-RA,,0.35,0.0,WeatherDisplay:10.37,2013-09-17 19:48:00,
2013-09-17 20:53:00,50.6,49.5,29.47,NNW,347,6.9,6.9,96,0.01,-RA,,0.35,0.0,WeatherDisplay:10.37,2013-09-17 19:53:00,
2013-09-17 20:59:00,50.5,49.4,29.47,NW,323,6.9,6.9,96,0.01,-RA,,0.35,0.0,WeatherDisplay:10.37,2013-09-17 19:59:00,
2013-09-17 21:04:00,50.4,49.3,29.48,North,1,3.5,3.5,96,0.01,OVC,,0.35,0.0,WeatherDisplay:10.37,2013-09-17 20:04:00,
2013-09-17 21:08:00,50.4,49.3,29.48,NNE,18,3.5,3.5,96,0.01,OVC,,0.35,0.0,WeatherDisplay:10.37,2013-09-17 20:08:00,
2013-09-17 21:13:00,50.3,49.2,29.48,NNW,332,6.9,6.9,96,0.01,OVC,,0.35,0.0,WeatherDisplay:10.37,2013-09-17 20:13:00,
2013-09-17 21:19:00,50.3,49.2,29.48,NNW,345,4.6,4.6,96,0.01,OVC,,0.35,0.0,WeatherDisplay:10.37,2013-09-17 20:19:00,
2013-09-17 21:23:00,50.2,49.1,29.48,NNW,329,3.5,3.5,96,0.01,OVC,,0.35,0.0,WeatherDisplay:10.37,2013-09-17 20:23:00,
2013-09-17 21:28:00,50.2,49.1,29.48,North,349,6.0,6.0,96,0.00,OVC,,0.35,0.0,WeatherDisplay:10.37,2013-09-17 20:28:00,
2013-09-17 21:34:00,50.1,49.0,29.49,NNW,336,4.6,4.6,96,0.00,OVC,,0.35,0.0,WeatherDisplay:10.37,2013-09-17 20:34:00,
2013-09-17 21:38:00,50.1,49.0,29.49,NNW,338,3.5,3.5,96,0.00,OVC,,0.35,0.0,WeatherDisplay:10.37,2013-09-17 20:38:00,
2013-09-17 21:43:00,50.0,48.9,29.49,NNW,344,4.6,4.6,96,0.00,OVC,,0.35,0.0,WeatherDisplay:10.37,2013-09-17 20:43:00,
2013-09-17 21:48:00,49.9,48.8,29.49,North,1,4.6,4.6,96,0.00,OVC,,0.35,0.0,WeatherDisplay:10.37,2013-09-17 20:48:00,
2013-09-17 21:53:00,49.9,48.8,29.49,North,357,3.5,3.5,96,0.00,OVC,,0.35,0.0,WeatherDisplay:10.37,2013-09-17 20:53:00,
2013-09-17 21:58:00,49.9,48.8,29.49,North,4,3.5,3.5,96,0.00,OVC,,0.35,0.0,WeatherDisplay:10.37,2013-09-17 20:58:00,
2013-09-17 22:03:00,49.9,48.8,29.49,NW,316,2.3,2.3,96,0.00,OVC,,0.35,0.0,WeatherDisplay:10.37,2013-09-17 21:03:00,
2013-09-17 22:08:00,49.9,48.8,29.49,NNW,328,2.3,2.3,96,0.00,OVC,,0.35,0.0,WeatherDisplay:10.37,2013-09-17 21:08:00,
2013-09-17 22:13:00,49.9,48.8,29.50,WNW,287,2.3,2.3,96,0.00,OVC,,0.35,0.0,WeatherDisplay:10.37,2013-09-17 21:13:00,
2013-09-17 22:18:00,49.9,48.8,29.50,NW,311,3.5,3.5,96,0.00,OVC,,0.35,0.0,WeatherDisplay:10.37,2013-09-17 21:18:00,
2013-09-17 22:24:00,49.8,48.7,29.50,NW,317,3.5,3.5,96,0.00,OVC,,0.35,0.0,WeatherDisplay:10.37,2013-09-17 21:24:00,
2013-09-17 22:29:00,49.8,48.7,29.50,NW,316,3.5,3.5,96,0.00,OVC,,0.35,0.0,WeatherDisplay:10.37,2013-09-17 21:29:00,
2013-09-17 22:34:00,49.8,48.7,29.50,NW,314,3.5,3.5,96,0.00,OVC,,0.35,0.0,WeatherDisplay:10.37,2013-09-17 21:34:00,
2013-09-17 22:39:00,49.7,48.6,29.50,NW,315,3.5,3.5,96,0.00,OVC,,0.35,0.0,WeatherDisplay:10.37,2013-09-17 21:39:00,
2013-09-17 22:44:00,49.7,48.6,29.50,WNW,294,4.6,4.6,96,0.00,OVC,,0.35,0.0,WeatherDisplay:10.37,2013-09-17 21:44:00,
2013-09-17 22:49:00,49.6,48.5,29.50,WNW,300,3.5,3.5,96,0.00,OVC,,0.35,0.0,WeatherDisplay:10.37,2013-09-17 21:49:00,
2013-09-17 22:54:00,49.6,48.5,29.50,WNW,301,2.3,2.3,96,0.00,OVC,,0.35,0.0,WeatherDisplay:10.37,2013-09-17 21:54:00,
2013-09-17 22:59:00,49.6,48.5,29.50,WNW,293,3.5,3.5,96,0.00,OVC,,0.35,0.0,WeatherDisplay:10.37,2013-09-17 21:59:00,
2013-09-17 23:04:00,49.6,48.5,29.51,NW,309,4.0,4.0,96,0.00,OVC,,0.35,0.0,WeatherDisplay:10.37,2013-09-17 22:04:00,
2013-09-17 23:09:00,49.6,48.5,29.51,NW,319,4.0,4.0,96,0.00,OVC,,0.35,0.0,WeatherDisplay:10.37,2013-09-17 22:09:00,
2013-09-17 23:13:00,49.5,48.4,29.51,WNW,293,4.6,4.6,96,0.00,OVC,,0.35,0.0,WeatherDisplay:10.37,2013-09-17 22:13:00,
2013-09-17 23:18:00,49.5,48.4,29.51,NW,306,3.5,3.5,96,0.00,OVC,,0.35,0.0,WeatherDisplay:10.37,2013-09-17 22:18:00,
2013-09-17 23:23:00,49.5,48.4,29.51,WNW,303,5.8,5.8,96,0.00,OVC,,0.35,0.0,WeatherDisplay:10.37,2013-09-17 22:23:00,
2013-09-17 23:28:00,49.5,48.4,29.51,NW,321,4.6,4.6,96,0.00,OVC,,0.35,0.0,WeatherDisplay:10.37,2013-09-17 22:28:00,
2013-09-17 23:34:00,49.5,48.4,29.51,WNW,298,3.5,3.5,96,0.00,OVC,,0.35,0.0,WeatherDisplay:10.37,2013-09-17 22:34:00,
2013-09-17 23:38:00,49.5,48.4,29.52,WNW,288,3.5,3.5,96,0.00,OVC,,0.35,0.0,WeatherDisplay:10.37,2013-09-17 22:38:00,
2013-09-17 23:43:00,49.4,48.3,29.52,WNW,293,4.6,4.6,96,0.00,OVC,,0.35,0.0,WeatherDisplay:10.37,2013-09-17 22:43:00,
2013-09-17 23:48:00,49.4,48.3,29.52,WNW,303,4.6,4.6,96,0.00,OVC,,0.35,0.0,WeatherDisplay:10.37,2013-09-17 22:48:00,
2013-09-17 23:53:00,49.4,48.3,29.52,NW,307,3.5,3.5,96,0.00,OVC,,0.35,0.0,WeatherDisplay:10.37,2013-09-17 22:53:00,
2013-09-17 23:59:00,49.4,48.3,29.52,WNW,300,4.6,4.6,96,0.00,OVC,,0.35,0.0,WeatherDisplay:10.37,2013-09-17 22:59:00,